Time,TemperatureF,DewpointF,PressureIn,WindDirection,WindDirectionDegrees,WindSpeedMPH,WindSpeedGustMPH,Humidity,HourlyPrecipIn,Conditions,Clouds,dailyrainin,SoftwareType,DateUTC
2013-03-08 00:00:00,35.8,13.9,30.24,North,0,0.0,0.0,40,0.00,,,0.00,WUHU216HW,2013-03-08 05:00:00,
2013-03-08 00:02:00,35.8,13.9,30.24,North,0,0.0,0.0,40,0.00,,,0.00,WUHU216HW,2013-03-08 05:02:00,
2013-03-08 00:07:00,36.0,14.1,30.24,North,0,0.0,0.0,40,0.00,,,0.00,WUHU216HW,2013-03-08 05:07:00,
2013-03-08 00:12:00,35.8,14.4,30.24,North,0,0.0,0.0,41,0.00,,,0.00,WUHU216HW,2013-03-08 05:12:00,
2013-03-08 00:17:00,35.6,14.8,30.24,North,0,0.0,0.0,42,0.00,,,0.00,WUHU216HW,2013-03-08 05:17:00,
2013-03-08 00:22:00,35.5,15.1,30.24,North,0,0.0,0.0,43,0.00,,,0.00,WUHU216HW,2013-03-08 05:22:00,
2013-03-08 00:27:00,35.3,15.0,30.24,North,0,0.0,0.0,43,0.00,,,0.00,WUHU216HW,2013-03-08 05:27:00,
2013-03-08 00:32:00,34.9,14.6,30.24,North,0,0.0,0.0,43,0.00,,,0.00,WUHU216HW,2013-03-08 05:32:00,
2013-03-08 00:38:00,34.9,14.6,30.24,North,0,0.0,0.0,43,0.00,,,0.00,WUHU216HW,2013-03-08 05:38:00,
2013-03-08 00:43:00,34.7,14.4,30.24,North,0,0.0,0.0,43,0.00,,,0.00,WUHU216HW,2013-03-08 05:43:00,
2013-03-08 00:48:00,34.4,14.6,30.24,North,0,0.0,0.0,44,0.00,,,0.00,WUHU216HW,2013-03-08 05:48:00,
2013-03-08 00:53:00,34.2,14.4,30.24,North,0,0.0,0.0,44,0.00,,,0.00,WUHU216HW,2013-03-08 05:53:00,
2013-03-08 00:58:00,33.8,14.0,30.24,North,0,0.0,0.0,44,0.00,,,0.00,WUHU216HW,2013-03-08 05:58:00,
2013-03-08 01:03:00,33.5,14.2,30.24,North,0,0.0,0.0,45,0.00,,,0.00,WUHU216HW,2013-03-08 06:03:00,
2013-03-08 01:08:00,33.1,14.0,30.24,North,0,0.0,0.0,45,0.00,,,0.00,WUHU216HW,2013-03-08 06:08:00,
2013-03-08 01:13:00,32.8,13.6,30.24,North,0,0.0,0.0,45,0.00,,,0.00,WUHU216HW,2013-03-08 06:13:00,
2013-03-08 01:18:00,32.6,13.4,30.24,North,0,0.0,0.0,45,0.00,,,0.00,WUHU216HW,2013-03-08 06:18:00,
2013-03-08 01:23:00,32.0,12.4,30.24,North,0,0.0,0.0,44,0.00,,,0.00,WUHU216HW,2013-03-08 06:23:00,
2013-03-08 01:28:00,32.0,12.4,30.24,North,0,0.0,0.0,44,0.00,,,0.00,WUHU216HW,2013-03-08 06:28:00,
2013-03-08 01:33:00,32.0,12.4,30.24,North,0,0.0,0.0,44,0.00,,,0.00,WUHU216HW,2013-03-08 06:33:00,
2013-03-08 01:39:00,31.7,11.6,30.23,North,0,0.0,0.0,43,0.00,,,0.00,WUHU216HW,2013-03-08 06:39:00,
2013-03-08 01:44:00,31.3,11.4,30.24,North,0,0.0,0.0,43,0.00,,,0.00,WUHU216HW,2013-03-08 06:44:00,
2013-03-08 01:49:00,31.1,10.6,30.24,North,0,0.0,0.0,42,0.00,,,0.00,WUHU216HW,2013-03-08 06:49:00,
2013-03-08 01:54:00,31.1,10.2,30.24,North,0,0.0,0.0,41,0.00,,,0.00,WUHU216HW,2013-03-08 06:54:00,
2013-03-08 01:59:00,31.1,9.6,30.24,North,0,0.0,0.0,40,0.00,,,0.00,WUHU216HW,2013-03-08 06:59:00,
2013-03-08 02:04:00,31.0,8.8,30.24,North,0,0.0,0.0,39,0.00,,,0.00,WUHU216HW,2013-03-08 07:04:00,
2013-03-08 02:09:00,30.8,7.4,30.24,North,0,0.0,0.0,37,0.00,,,0.00,WUHU216HW,2013-03-08 07:09:00,
2013-03-08 02:14:00,31.0,6.9,30.25,North,0,0.0,0.0,36,0.00,,,0.00,WUHU216HW,2013-03-08 07:14:00,
2013-03-08 02:19:00,30.8,6.8,30.24,North,0,0.0,0.0,36,0.00,,,0.00,WUHU216HW,2013-03-08 07:19:00,
2013-03-08 02:24:00,30.6,6.7,30.24,North,0,0.0,0.0,36,0.00,,,0.00,WUHU216HW,2013-03-08 07:24:00,
2013-03-08 02:29:00,30.6,6.0,30.25,North,0,0.0,0.0,35,0.00,,,0.00,WUHU216HW,2013-03-08 07:29:00,
2013-03-08 02:34:00,30.6,4.8,30.25,North,0,0.0,0.0,33,0.00,,,0.00,WUHU216HW,2013-03-08 07:34:00,
2013-03-08 02:39:00,30.6,4.8,30.25,North,0,0.0,0.0,33,0.00,,,0.00,WUHU216HW,2013-03-08 07:39:00,
2013-03-08 02:44:00,30.4,4.6,30.24,North,0,0.0,0.0,33,0.00,,,0.00,WUHU216HW,2013-03-08 07:44:00,
2013-03-08 02:49:00,30.2,4.4,30.24,North,0,0.0,0.0,33,0.00,,,0.00,WUHU216HW,2013-03-08 07:49:00,
2013-03-08 02:54:00,30.1,4.2,30.24,North,0,0.0,0.0,33,0.00,,,0.00,WUHU216HW,2013-03-08 07:54:00,
2013-03-08 02:59:00,29.9,2.8,30.24,North,0,0.0,0.0,31,0.00,,,0.00,WUHU216HW,2013-03-08 07:59:00,
2013-03-08 03:04:00,29.9,2.2,30.24,North,0,0.0,0.0,30,0.00,,,0.00,WUHU216HW,2013-03-08 08:04:00,
2013-03-08 03:09:00,29.9,0.5,30.24,North,0,0.0,0.0,28,0.00,,,0.00,WUHU216HW,2013-03-08 08:09:00,
2013-03-08 03:14:00,29.9,1.4,30.24,North,0,0.0,0.0,29,0.00,,,0.00,WUHU216HW,2013-03-08 08:14:00,
2013-03-08 03:19:00,29.7,0.4,30.24,North,0,0.0,0.0,28,0.00,,,0.00,WUHU216HW,2013-03-08 08:19:00,
2013-03-08 03:25:00,29.7,0.4,30.24,North,0,0.0,0.0,28,0.00,,,0.00,WUHU216HW,2013-03-08 08:25:00,
2013-03-08 03:30:00,29.5,0.2,30.24,North,0,0.0,0.0,28,0.00,,,0.00,WUHU216HW,2013-03-08 08:30:00,
2013-03-08 03:35:00,29.5,-1.5,30.24,North,0,0.0,0.0,26,0.00,,,0.00,WUHU216HW,2013-03-08 08:35:00,
2013-03-08 03:40:00,29.5,-2.4,30.24,North,0,0.0,0.0,25,0.00,,,0.00,WUHU216HW,2013-03-08 08:40:00,
2013-03-08 03:45:00,29.3,-1.7,30.24,North,0,0.0,0.0,26,0.00,,,0.00,WUHU216HW,2013-03-08 08:45:00,
2013-03-08 03:50:00,29.2,-3.6,30.24,North,0,0.0,0.0,24,0.00,,,0.00,WUHU216HW,2013-03-08 08:50:00,
2013-03-08 03:55:00,29.3,-3.4,30.24,North,0,0.0,0.0,24,0.00,,,0.00,WUHU216HW,2013-03-08 08:55:00,
2013-03-08 04:00:00,29.2,-3.6,30.24,North,0,0.0,0.0,24,0.00,,,0.00,WUHU216HW,2013-03-08 09:00:00,
2013-03-08 04:05:00,29.2,-5.3,30.24,North,0,0.0,0.0,22,0.00,,,0.00,WUHU216HW,2013-03-08 09:05:00,
2013-03-08 04:10:00,29.2,-7.0,30.24,North,0,0.0,0.0,20,0.00,,,0.00,WUHU216HW,2013-03-08 09:10:00,
2013-03-08 04:15:00,29.2,-7.0,30.24,North,0,0.0,0.0,20,0.00,,,0.00,WUHU216HW,2013-03-08 09:15:00,
2013-03-08 04:20:00,29.0,-7.1,30.24,North,0,0.0,0.0,20,0.00,,,0.00,WUHU216HW,2013-03-08 09:20:00,
2013-03-08 04:25:00,28.6,-7.4,30.24,North,0,0.0,0.0,20,0.00,,,0.00,WUHU216HW,2013-03-08 09:25:00,
2013-03-08 04:30:00,28.8,-10.0,30.24,North,0,0.0,0.0,18,0.00,,,0.00,WUHU216HW,2013-03-08 09:30:00,
2013-03-08 04:35:00,29.0,-11.2,30.24,North,0,0.0,0.0,17,0.00,,,0.00,WUHU216HW,2013-03-08 09:35:00,
2013-03-08 04:40:00,28.8,-11.3,30.25,North,0,0.0,0.0,17,0.00,,,0.00,WUHU216HW,2013-03-08 09:40:00,
2013-03-08 04:45:00,28.8,-14.1,30.25,North,0,0.0,0.0,15,0.00,,,0.00,WUHU216HW,2013-03-08 09:45:00,
2013-03-08 04:50:00,28.6,-12.9,30.25,North,0,0.0,0.0,16,0.00,,,0.00,WUHU216HW,2013-03-08 09:50:00,
2013-03-08 04:55:00,28.4,-13.0,30.25,North,0,0.0,0.0,16,0.00,,,0.00,WUHU216HW,2013-03-08 09:55:00,
2013-03-08 05:00:00,28.4,-15.7,30.25,North,0,0.0,0.0,14,0.00,,,0.00,WUHU216HW,2013-03-08 10:00:00,
2013-03-08 05:06:00,28.4,-15.7,30.25,North,0,0.0,0.0,14,0.00,,,0.00,WUHU216HW,2013-03-08 10:06:00,
2013-03-08 05:11:00,28.6,-18.4,30.25,North,0,0.0,0.0,12,0.00,,,0.00,WUHU216HW,2013-03-08 10:11:00,
2013-03-08 05:16:00,28.6,-18.4,30.25,North,0,0.0,0.0,12,0.00,,,0.00,WUHU216HW,2013-03-08 10:16:00,
2013-03-08 05:21:00,28.6,-21.0,30.25,North,0,0.0,0.0,10,0.00,,,0.00,WUHU216HW,2013-03-08 10:21:00,
2013-03-08 05:26:00,28.4,-21.2,30.25,North,0,0.0,0.0,10,0.00,,,0.00,WUHU216HW,2013-03-08 10:26:00,
2013-03-08 05:31:00,28.4,-19.9,30.25,North,0,0.0,0.0,11,0.00,,,0.00,WUHU216HW,2013-03-08 10:31:00,
2013-03-08 05:36:00,28.4,-19.9,30.25,North,0,0.0,0.0,11,0.00,,,0.00,WUHU216HW,2013-03-08 10:36:00,
2013-03-08 05:41:00,28.1,-18.8,30.25,North,0,0.0,0.0,12,0.00,,,0.00,WUHU216HW,2013-03-08 10:41:00,
2013-03-08 05:46:00,27.9,-20.3,30.25,North,0,0.0,0.0,11,0.00,,,0.00,WUHU216HW,2013-03-08 10:46:00,
2013-03-08 05:51:00,27.7,-21.8,30.25,North,0,0.0,0.0,10,0.00,,,0.00,WUHU216HW,2013-03-08 10:51:00,
2013-03-08 05:56:00,27.7,-21.8,30.25,North,0,0.0,0.0,7,0.00,,,0.00,WUHU216HW,2013-03-08 10:56:00,
2013-03-08 06:01:00,27.7,-21.8,30.25,North,0,0.0,0.0,8,0.00,,,0.00,WUHU216HW,2013-03-08 11:01:00,
2013-03-08 06:06:00,27.7,-21.8,30.26,North,0,0.0,0.0,9,0.00,,,0.00,WUHU216HW,2013-03-08 11:06:00,
2013-03-08 06:11:00,27.4,-22.1,30.26,North,0,0.0,0.0,7,0.00,,,0.00,WUHU216HW,2013-03-08 11:11:00,
2013-03-08 06:16:00,27.2,-22.2,30.26,North,0,0.0,0.0,4,0.00,,,0.00,WUHU216HW,2013-03-08 11:16:00,
2013-03-08 06:21:00,27.2,-22.2,30.26,North,0,0.0,0.0,3,0.00,,,0.00,WUHU216HW,2013-03-08 11:21:00,
2013-03-08 06:26:00,27.2,-22.2,30.26,North,0,0.0,0.0,2,0.00,,,0.00,WUHU216HW,2013-03-08 11:26:00,
2013-03-08 06:31:00,27.0,-22.4,30.26,North,0,0.0,0.0,1,0.00,,,0.00,WUHU216HW,2013-03-08 11:31:00,
2013-03-08 06:36:00,27.0,-22.4,30.26,North,0,0.0,0.0,1,0.00,,,0.00,WUHU216HW,2013-03-08 11:36:00,
2013-03-08 06:41:00,27.2,-22.2,30.26,North,0,0.0,0.0,1,0.00,,,0.00,WUHU216HW,2013-03-08 11:41:00,
2013-03-08 06:46:00,27.2,-22.2,30.26,North,0,0.0,0.0,1,0.00,,,0.00,WUHU216HW,2013-03-08 11:46:00,
2013-03-08 06:52:00,27.2,-22.2,30.26,North,0,0.0,0.0,1,0.00,,,0.00,WUHU216HW,2013-03-08 11:52:00,
2013-03-08 06:57:00,27.4,-22.1,30.27,North,0,0.0,0.0,1,0.00,,,0.00,WUHU216HW,2013-03-08 11:57:00,
2013-03-08 07:02:00,27.2,-22.2,30.27,North,0,0.0,0.0,1,0.00,,,0.00,WUHU216HW,2013-03-08 12:02:00,
2013-03-08 07:07:00,27.0,-22.4,30.27,North,0,0.0,0.0,1,0.00,,,0.00,WUHU216HW,2013-03-08 12:07:00,
2013-03-08 07:12:00,27.0,-22.4,30.28,North,0,0.0,0.0,1,0.00,,,0.00,WUHU216HW,2013-03-08 12:12:00,
2013-03-08 07:17:00,27.2,-22.2,30.28,North,0,0.0,0.0,1,0.00,,,0.00,WUHU216HW,2013-03-08 12:17:00,
2013-03-08 07:22:00,27.4,-22.1,30.28,North,0,0.0,0.0,1,0.00,,,0.00,WUHU216HW,2013-03-08 12:22:00,
2013-03-08 07:27:00,27.7,-21.8,30.28,North,0,0.0,0.0,1,0.00,,,0.00,WUHU216HW,2013-03-08 12:27:00,
2013-03-08 07:32:00,27.7,-21.8,30.28,North,0,0.0,0.0,1,0.00,,,0.00,WUHU216HW,2013-03-08 12:32:00,
2013-03-08 07:37:00,28.1,-21.5,30.29,North,0,0.0,0.0,1,0.00,,,0.00,WUHU216HW,2013-03-08 12:37:00,
2013-03-08 07:42:00,28.4,-21.2,30.29,North,0,0.0,0.0,1,0.00,,,0.00,WUHU216HW,2013-03-08 12:42:00,
2013-03-08 07:47:00,29.0,-20.8,30.29,North,0,0.0,0.0,1,0.00,,,0.00,WUHU216HW,2013-03-08 12:47:00,
2013-03-08 07:52:00,29.5,-20.3,30.29,North,0,0.0,0.0,1,0.00,,,0.00,WUHU216HW,2013-03-08 12:52:00,
2013-03-08 07:58:00,30.1,-20.0,30.28,North,0,0.0,0.0,1,0.00,,,0.00,WUHU216HW,2013-03-08 12:58:00,
2013-03-08 08:03:00,30.6,-19.5,30.29,North,0,0.0,0.0,1,0.00,,,0.00,WUHU216HW,2013-03-08 13:03:00,
2013-03-08 08:08:00,31.3,-18.9,30.29,North,0,0.0,0.0,1,0.00,,,0.00,WUHU216HW,2013-03-08 13:08:00,
2013-03-08 08:13:00,32.0,-18.4,30.29,North,0,0.0,0.0,1,0.00,,,0.00,WUHU216HW,2013-03-08 13:13:00,
2013-03-08 08:18:00,32.8,-17.8,30.29,North,0,0.0,0.0,1,0.00,,,0.00,WUHU216HW,2013-03-08 13:18:00,
2013-03-08 08:23:00,33.5,-17.4,30.29,North,0,0.0,0.0,1,0.00,,,0.00,WUHU216HW,2013-03-08 13:23:00,
2013-03-08 08:28:00,34.2,-16.8,30.29,North,0,0.0,0.0,1,0.00,,,0.00,WUHU216HW,2013-03-08 13:28:00,
2013-03-08 08:33:00,35.1,-16.1,30.29,North,0,0.0,0.0,1,0.00,,,0.00,WUHU216HW,2013-03-08 13:33:00,
2013-03-08 08:38:00,36.0,-15.4,30.30,North,0,0.0,0.0,1,0.00,,,0.00,WUHU216HW,2013-03-08 13:38:00,
2013-03-08 08:43:00,36.9,-14.7,30.30,North,0,0.0,0.0,5,0.00,,,0.00,WUHU216HW,2013-03-08 13:43:00,
2013-03-08 08:48:00,37.8,-13.9,30.29,North,0,0.0,0.0,7,0.00,,,0.00,WUHU216HW,2013-03-08 13:48:00,
2013-03-08 08:53:00,38.5,-4.9,30.30,North,0,0.0,0.0,16,0.00,,,0.00,WUHU216HW,2013-03-08 13:53:00,
2013-03-08 08:58:00,39.1,5.2,30.30,North,0,0.0,0.0,24,0.00,,,0.00,WUHU216HW,2013-03-08 13:58:00,
2013-03-08 09:03:00,39.4,10.3,30.30,North,0,0.0,0.0,30,0.00,,,0.00,WUHU216HW,2013-03-08 14:03:00,
2013-03-08 09:08:00,39.4,13.9,30.30,North,0,0.0,0.0,35,0.00,,,0.00,WUHU216HW,2013-03-08 14:08:00,
2013-03-08 09:13:00,39.6,14.7,30.31,North,0,0.0,0.0,36,0.00,,,0.00,WUHU216HW,2013-03-08 14:13:00,
2013-03-08 09:18:00,40.0,13.1,30.31,North,0,0.0,0.0,33,0.00,,,0.00,WUHU216HW,2013-03-08 14:18:00,
2013-03-08 09:23:00,40.5,16.1,30.31,North,0,0.0,0.0,37,0.00,,,0.00,WUHU216HW,2013-03-08 14:23:00,
2013-03-08 09:29:00,41.0,16.6,30.31,North,0,0.0,0.0,37,0.00,,,0.00,WUHU216HW,2013-03-08 14:29:00,
2013-03-08 09:34:00,41.4,19.9,30.31,North,0,0.0,0.0,42,0.00,,,0.00,WUHU216HW,2013-03-08 14:34:00,
2013-03-08 09:39:00,41.9,20.4,30.31,North,0,0.0,0.0,42,0.00,,,0.00,WUHU216HW,2013-03-08 14:39:00,
2013-03-08 09:44:00,42.1,22.1,30.30,North,0,0.0,0.0,45,0.00,,,0.00,WUHU216HW,2013-03-08 14:44:00,
2013-03-08 09:49:00,42.3,22.3,30.30,North,0,0.0,0.0,45,0.00,,,0.00,WUHU216HW,2013-03-08 14:49:00,
2013-03-08 09:54:00,42.8,22.9,30.30,North,0,0.0,0.0,45,0.00,,,0.00,WUHU216HW,2013-03-08 14:54:00,
2013-03-08 09:59:00,43.4,23.3,30.31,North,0,0.0,0.0,45,0.00,,,0.00,WUHU216HW,2013-03-08 14:59:00,
2013-03-08 10:04:00,43.7,24.2,30.31,North,0,0.0,0.0,46,0.00,,,0.00,WUHU216HW,2013-03-08 15:04:00,
2013-03-08 10:09:00,44.1,24.6,30.31,North,0,0.0,0.0,46,0.00,,,0.00,WUHU216HW,2013-03-08 15:09:00,
2013-03-08 10:14:00,44.3,24.7,30.30,North,0,0.0,0.0,46,0.00,,,0.00,WUHU216HW,2013-03-08 15:14:00,
2013-03-08 10:19:00,44.3,24.7,30.30,North,0,0.0,0.0,46,0.00,,,0.00,WUHU216HW,2013-03-08 15:19:00,
2013-03-08 10:24:00,45.0,24.3,30.30,North,0,0.0,0.0,44,0.00,,,0.00,WUHU216HW,2013-03-08 15:24:00,
2013-03-08 10:29:00,45.2,24.9,30.30,North,0,0.0,0.0,45,0.00,,,0.00,WUHU216HW,2013-03-08 15:29:00,
2013-03-08 10:34:00,45.7,24.9,30.30,North,0,0.0,0.0,44,0.00,,,0.00,WUHU216HW,2013-03-08 15:34:00,
2013-03-08 10:40:00,45.9,25.7,30.30,North,0,0.0,0.0,45,0.00,,,0.00,WUHU216HW,2013-03-08 15:40:00,
2013-03-08 10:45:00,46.1,24.7,30.30,North,0,0.0,0.0,43,0.00,,,0.00,WUHU216HW,2013-03-08 15:45:00,
2013-03-08 10:50:00,46.1,23.6,30.30,North,0,0.0,0.0,41,0.00,,,0.00,WUHU216HW,2013-03-08 15:50:00,
2013-03-08 10:55:00,46.4,25.0,30.30,North,0,0.0,0.0,43,0.00,,,0.00,WUHU216HW,2013-03-08 15:55:00,
2013-03-08 11:00:00,46.8,24.3,30.30,North,0,0.0,0.0,41,0.00,,,0.00,WUHU216HW,2013-03-08 16:00:00,
2013-03-08 11:05:00,46.6,24.7,30.30,North,0,0.0,0.0,42,0.00,,,0.00,WUHU216HW,2013-03-08 16:05:00,
2013-03-08 11:10:00,47.2,25.1,30.30,North,0,0.0,0.0,42,0.00,,,0.00,WUHU216HW,2013-03-08 16:10:00,
2013-03-08 11:15:00,47.9,25.2,30.30,North,0,0.0,0.0,41,0.00,,,0.00,WUHU216HW,2013-03-08 16:15:00,
2013-03-08 11:20:00,48.2,25.0,30.29,North,0,0.0,0.0,40,0.00,,,0.00,WUHU216HW,2013-03-08 16:20:00,
2013-03-08 11:25:00,48.6,25.4,30.30,North,0,0.0,0.0,40,0.00,,,0.00,WUHU216HW,2013-03-08 16:25:00,
2013-03-08 11:30:00,48.2,24.4,30.29,North,0,0.0,0.0,39,0.00,,,0.00,WUHU216HW,2013-03-08 16:30:00,
2013-03-08 11:36:00,49.3,27.1,30.29,North,0,0.0,0.0,42,0.00,,,0.00,WUHU216HW,2013-03-08 16:36:00,
2013-03-08 11:41:00,50.8,28.5,30.29,North,0,0.0,0.0,42,0.00,,,0.00,WUHU216HW,2013-03-08 16:41:00,
2013-03-08 11:46:00,51.1,26.3,30.29,North,0,0.0,0.0,38,0.00,,,0.00,WUHU216HW,2013-03-08 16:46:00,
2013-03-08 11:51:00,50.6,26.5,30.29,North,0,0.0,0.0,39,0.00,,,0.00,WUHU216HW,2013-03-08 16:51:00,
2013-03-08 11:56:00,50.8,25.9,30.28,North,0,0.0,0.0,38,0.00,,,0.00,WUHU216HW,2013-03-08 16:56:00,
2013-03-08 12:01:00,50.8,24.6,30.28,North,0,0.0,0.0,36,0.00,,,0.00,WUHU216HW,2013-03-08 17:01:00,
2013-03-08 12:06:00,50.8,24.6,30.28,North,0,0.0,0.0,36,0.00,,,0.00,WUHU216HW,2013-03-08 17:06:00,
2013-03-08 12:11:00,50.9,25.4,30.28,North,0,0.0,0.0,37,0.00,,,0.00,WUHU216HW,2013-03-08 17:11:00,
2013-03-08 12:16:00,51.3,26.4,30.27,North,0,0.0,0.0,38,0.00,,,0.00,WUHU216HW,2013-03-08 17:16:00,
2013-03-08 12:21:00,52.6,26.8,30.27,North,0,0.0,0.0,37,0.00,,,0.00,WUHU216HW,2013-03-08 17:21:00,
2013-03-08 12:26:00,53.1,28.7,30.27,North,0,0.0,0.0,39,0.00,,,0.00,WUHU216HW,2013-03-08 17:26:00,
2013-03-08 12:31:00,53.8,28.7,30.27,North,0,0.0,0.0,38,0.00,,,0.00,WUHU216HW,2013-03-08 17:31:00,
2013-03-08 12:36:00,54.0,27.5,30.27,North,0,0.0,0.0,36,0.00,,,0.00,WUHU216HW,2013-03-08 17:36:00,
2013-03-08 12:41:00,53.8,28.0,30.27,North,0,0.0,0.0,37,0.00,,,0.00,WUHU216HW,2013-03-08 17:41:00,
2013-03-08 12:46:00,53.8,26.7,30.26,North,0,0.0,0.0,35,0.00,,,0.00,WUHU216HW,2013-03-08 17:46:00,
2013-03-08 12:52:00,54.0,26.7,30.26,North,0,0.0,0.0,35,0.00,,,0.00,WUHU216HW,2013-03-08 17:52:00,
2013-03-08 12:57:00,54.2,24.8,30.26,North,0,0.0,0.0,32,0.00,,,0.00,WUHU216HW,2013-03-08 17:57:00,
2013-03-08 13:02:00,53.8,25.2,30.26,North,0,0.0,0.0,33,0.00,,,0.00,WUHU216HW,2013-03-08 18:02:00,
2013-03-08 13:07:00,54.0,25.4,30.26,North,0,0.0,0.0,33,0.00,,,0.00,WUHU216HW,2013-03-08 18:07:00,
2013-03-08 13:12:00,54.4,25.7,30.25,North,0,0.0,0.0,33,0.00,,,0.00,WUHU216HW,2013-03-08 18:12:00,
2013-03-08 13:17:00,54.0,25.4,30.25,North,0,0.0,0.0,33,0.00,,,0.00,WUHU216HW,2013-03-08 18:17:00,
2013-03-08 13:22:00,54.0,25.4,30.25,North,0,0.0,0.0,33,0.00,,,0.00,WUHU216HW,2013-03-08 18:22:00,
2013-03-08 13:27:00,54.4,25.7,30.25,North,0,0.0,0.0,33,0.00,,,0.00,WUHU216HW,2013-03-08 18:27:00,
2013-03-08 13:32:00,54.7,28.1,30.24,North,0,0.0,0.0,36,0.00,,,0.00,WUHU216HW,2013-03-08 18:32:00,
2013-03-08 13:37:00,55.6,27.5,30.24,North,0,0.0,0.0,34,0.00,,,0.00,WUHU216HW,2013-03-08 18:37:00,
2013-03-08 13:42:00,55.6,26.7,30.24,North,0,0.0,0.0,33,0.00,,,0.00,WUHU216HW,2013-03-08 18:42:00,
2013-03-08 13:47:00,55.8,29.0,30.24,North,0,0.0,0.0,36,0.00,,,0.00,WUHU216HW,2013-03-08 18:47:00,
2013-03-08 13:52:00,56.2,27.3,30.24,North,0,0.0,0.0,33,0.00,,,0.00,WUHU216HW,2013-03-08 18:52:00,
2013-03-08 13:57:00,56.0,24.9,30.24,North,0,0.0,0.0,30,0.00,,,0.00,WUHU216HW,2013-03-08 18:57:00,
2013-03-08 14:02:00,56.0,27.1,30.23,North,0,0.0,0.0,33,0.00,,,0.00,WUHU216HW,2013-03-08 19:02:00,
2013-03-08 14:07:00,56.2,26.6,30.23,North,0,0.0,0.0,32,0.00,,,0.00,WUHU216HW,2013-03-08 19:07:00,
2013-03-08 14:12:00,56.5,26.2,30.23,North,0,0.0,0.0,31,0.00,,,0.00,WUHU216HW,2013-03-08 19:12:00,
2013-03-08 14:17:00,56.7,26.3,30.23,North,0,0.0,0.0,31,0.00,,,0.00,WUHU216HW,2013-03-08 19:17:00,
2013-03-08 14:22:00,56.5,26.8,30.22,North,0,0.0,0.0,32,0.00,,,0.00,WUHU216HW,2013-03-08 19:22:00,
2013-03-08 14:27:00,57.1,28.7,30.22,North,0,0.0,0.0,34,0.00,,,0.00,WUHU216HW,2013-03-08 19:27:00,
2013-03-08 14:32:00,57.6,28.5,30.22,North,0,0.0,0.0,33,0.00,,,0.00,WUHU216HW,2013-03-08 19:32:00,
2013-03-08 14:37:00,57.6,26.5,30.22,North,0,0.0,0.0,30,0.00,,,0.00,WUHU216HW,2013-03-08 19:37:00,
2013-03-08 14:42:00,57.2,27.6,30.22,North,0,0.0,0.0,32,0.00,,,0.00,WUHU216HW,2013-03-08 19:42:00,
2013-03-08 14:47:00,57.6,27.8,30.22,North,0,0.0,0.0,32,0.00,,,0.00,WUHU216HW,2013-03-08 19:47:00,
2013-03-08 14:52:00,58.0,28.9,30.21,North,0,0.0,0.0,33,0.00,,,0.00,WUHU216HW,2013-03-08 19:52:00,
2013-03-08 14:57:00,58.0,26.7,30.21,North,0,0.0,0.0,30,0.00,,,0.00,WUHU216HW,2013-03-08 19:57:00,
2013-03-08 15:02:00,58.0,27.5,30.21,North,0,0.0,0.0,31,0.00,,,0.00,WUHU216HW,2013-03-08 20:02:00,
2013-03-08 15:07:00,58.1,25.9,30.21,North,0,0.0,0.0,29,0.00,,,0.00,WUHU216HW,2013-03-08 20:07:00,
2013-03-08 15:13:00,58.0,27.5,30.21,North,0,0.0,0.0,31,0.00,,,0.00,WUHU216HW,2013-03-08 20:13:00,
2013-03-08 15:18:00,58.5,28.6,30.21,North,0,0.0,0.0,32,0.00,,,0.00,WUHU216HW,2013-03-08 20:18:00,
2013-03-08 15:23:00,58.9,28.3,30.20,North,0,0.0,0.0,31,0.00,,,0.00,WUHU216HW,2013-03-08 20:23:00,
2013-03-08 15:28:00,58.9,27.5,30.20,North,0,0.0,0.0,30,0.00,,,0.00,WUHU216HW,2013-03-08 20:28:00,
2013-03-08 15:33:00,59.2,29.3,30.20,North,0,0.0,0.0,32,0.00,,,0.00,WUHU216HW,2013-03-08 20:33:00,
2013-03-08 15:38:00,59.0,26.7,30.20,North,0,0.0,0.0,29,0.00,,,0.00,WUHU216HW,2013-03-08 20:38:00,
2013-03-08 15:43:00,59.4,28.7,30.20,North,0,0.0,0.0,31,0.00,,,0.00,WUHU216HW,2013-03-08 20:43:00,
2013-03-08 15:48:00,59.8,29.7,30.20,North,0,0.0,0.0,32,0.00,,,0.00,WUHU216HW,2013-03-08 20:48:00,
2013-03-08 15:53:00,59.8,25.4,30.20,North,0,0.0,0.0,27,0.00,,,0.00,WUHU216HW,2013-03-08 20:53:00,
2013-03-08 15:58:00,59.8,23.5,30.20,North,0,0.0,0.0,25,0.00,,,0.00,WUHU216HW,2013-03-08 20:58:00,
2013-03-08 16:03:00,59.6,23.3,30.19,North,0,0.0,0.0,25,0.00,,,0.00,WUHU216HW,2013-03-08 21:03:00,
2013-03-08 16:08:00,59.8,22.5,30.19,North,0,0.0,0.0,24,0.00,,,0.00,WUHU216HW,2013-03-08 21:08:00,
2013-03-08 16:13:00,59.6,23.3,30.18,North,0,0.0,0.0,25,0.00,,,0.00,WUHU216HW,2013-03-08 21:13:00,
2013-03-08 16:18:00,59.8,22.5,30.18,North,0,0.0,0.0,24,0.00,,,0.00,WUHU216HW,2013-03-08 21:18:00,
2013-03-08 16:23:00,59.6,22.3,30.18,North,0,0.0,0.0,24,0.00,,,0.00,WUHU216HW,2013-03-08 21:23:00,
2013-03-08 16:28:00,59.6,22.3,30.18,North,0,0.0,0.0,24,0.00,,,0.00,WUHU216HW,2013-03-08 21:28:00,
2013-03-08 16:33:00,59.6,23.3,30.18,North,0,0.0,0.0,25,0.00,,,0.00,WUHU216HW,2013-03-08 21:33:00,
2013-03-08 16:38:00,59.8,25.4,30.18,North,0,0.0,0.0,27,0.00,,,0.00,WUHU216HW,2013-03-08 21:38:00,
2013-03-08 16:43:00,59.8,24.5,30.18,North,0,0.0,0.0,26,0.00,,,0.00,WUHU216HW,2013-03-08 21:43:00,
2013-03-08 16:48:00,59.9,22.7,30.18,North,0,0.0,0.0,24,0.00,,,0.00,WUHU216HW,2013-03-08 21:48:00,
2013-03-08 16:53:00,59.6,23.3,30.18,North,0,0.0,0.0,25,0.00,,,0.00,WUHU216HW,2013-03-08 21:53:00,
2013-03-08 16:58:00,59.6,23.3,30.17,North,0,0.0,0.0,25,0.00,,,0.00,WUHU216HW,2013-03-08 21:58:00,
2013-03-08 17:04:00,59.4,23.1,30.17,North,0,0.0,0.0,25,0.00,,,0.00,WUHU216HW,2013-03-08 22:04:00,
2013-03-08 17:09:00,59.4,23.1,30.18,North,0,0.0,0.0,25,0.00,,,0.00,WUHU216HW,2013-03-08 22:09:00,
2013-03-08 17:14:00,59.2,23.1,30.18,North,0,0.0,0.0,25,0.00,,,0.00,WUHU216HW,2013-03-08 22:14:00,
2013-03-08 17:19:00,59.0,24.9,30.18,North,0,0.0,0.0,27,0.00,,,0.00,WUHU216HW,2013-03-08 22:19:00,
2013-03-08 17:24:00,58.9,22.7,30.18,North,0,0.0,0.0,25,0.00,,,0.00,WUHU216HW,2013-03-08 22:24:00,
2013-03-08 17:29:00,58.9,22.7,30.19,North,0,0.0,0.0,25,0.00,,,0.00,WUHU216HW,2013-03-08 22:29:00,
2013-03-08 17:34:00,58.7,21.6,30.19,North,0,0.0,0.0,24,0.00,,,0.00,WUHU216HW,2013-03-08 22:34:00,
2013-03-08 17:39:00,58.7,21.6,30.19,North,0,0.0,0.0,24,0.00,,,0.00,WUHU216HW,2013-03-08 22:39:00,
2013-03-08 17:44:00,58.5,22.4,30.19,North,0,0.0,0.0,25,0.00,,,0.00,WUHU216HW,2013-03-08 22:44:00,
2013-03-08 17:49:00,58.3,23.2,30.19,North,0,0.0,0.0,26,0.00,,,0.00,WUHU216HW,2013-03-08 22:49:00,
2013-03-08 17:54:00,58.0,22.9,30.19,North,0,0.0,0.0,26,0.00,,,0.00,WUHU216HW,2013-03-08 22:54:00,
2013-03-08 17:59:00,57.8,20.8,30.19,North,0,0.0,0.0,24,0.00,,,0.00,WUHU216HW,2013-03-08 22:59:00,
2013-03-08 18:04:00,57.6,21.6,30.19,North,0,0.0,0.0,25,0.00,,,0.00,WUHU216HW,2013-03-08 23:04:00,
2013-03-08 18:10:00,56.9,21.1,30.19,North,0,0.0,0.0,25,0.00,,,0.00,WUHU216HW,2013-03-08 23:10:00,
2013-03-08 18:15:00,56.5,20.7,30.19,North,0,0.0,0.0,25,0.00,,,0.00,WUHU216HW,2013-03-08 23:15:00,
2013-03-08 18:20:00,56.3,20.5,30.19,North,0,0.0,0.0,25,0.00,,,0.00,WUHU216HW,2013-03-08 23:20:00,
2013-03-08 18:25:00,55.6,21.9,30.19,North,0,0.0,0.0,27,0.00,,,0.00,WUHU216HW,2013-03-08 23:25:00,
2013-03-08 18:30:00,55.1,22.3,30.19,North,0,0.0,0.0,28,0.00,,,0.00,WUHU216HW,2013-03-08 23:30:00,
2013-03-08 18:35:00,54.7,22.1,30.19,North,0,0.0,0.0,28,0.00,,,0.00,WUHU216HW,2013-03-08 23:35:00,
2013-03-08 18:40:00,54.2,22.5,30.19,North,0,0.0,0.0,29,0.00,,,0.00,WUHU216HW,2013-03-08 23:40:00,
2013-03-08 18:45:00,53.3,22.7,30.20,North,0,0.0,0.0,30,0.00,,,0.00,WUHU216HW,2013-03-08 23:45:00,
2013-03-08 18:50:00,52.7,23.0,30.21,North,0,0.0,0.0,31,0.00,,,0.00,WUHU216HW,2013-03-08 23:50:00,
2013-03-08 18:55:00,51.7,22.0,30.21,North,0,0.0,0.0,31,0.00,,,0.00,WUHU216HW,2013-03-08 23:55:00,
2013-03-08 19:00:00,51.1,21.4,30.21,North,0,0.0,0.0,31,0.00,,,0.00,WUHU216HW,2013-03-09 00:00:00,
2013-03-08 19:05:00,50.0,21.9,30.21,North,0,0.0,0.0,33,0.00,,,0.00,WUHU216HW,2013-03-09 00:05:00,
2013-03-08 19:10:00,49.5,21.4,30.21,North,0,0.0,0.0,33,0.00,,,0.00,WUHU216HW,2013-03-09 00:10:00,
2013-03-08 19:15:00,48.8,21.5,30.21,North,0,0.0,0.0,34,0.00,,,0.00,WUHU216HW,2013-03-09 00:15:00,
2013-03-08 19:20:00,48.4,21.2,30.22,North,0,0.0,0.0,34,0.00,,,0.00,WUHU216HW,2013-03-09 00:20:00,
2013-03-08 19:26:00,48.1,22.2,30.22,North,0,0.0,0.0,36,0.00,,,0.00,WUHU216HW,2013-03-09 00:26:00,
2013-03-08 19:31:00,47.9,22.1,30.22,North,0,0.0,0.0,36,0.00,,,0.00,WUHU216HW,2013-03-09 00:31:00,
2013-03-08 19:36:00,47.2,21.4,30.22,North,0,0.0,0.0,36,0.00,,,0.00,WUHU216HW,2013-03-09 00:36:00,
2013-03-08 19:41:00,46.8,21.1,30.22,North,0,0.0,0.0,36,0.00,,,0.00,WUHU216HW,2013-03-09 00:41:00,
2013-03-08 19:46:00,46.4,21.4,30.23,North,0,0.0,0.0,37,0.00,,,0.00,WUHU216HW,2013-03-09 00:46:00,
2013-03-08 19:51:00,46.4,21.4,30.23,North,0,0.0,0.0,37,0.00,,,0.00,WUHU216HW,2013-03-09 00:51:00,
2013-03-08 19:56:00,46.1,21.8,30.23,North,0,0.0,0.0,38,0.00,,,0.00,WUHU216HW,2013-03-09 00:56:00,
2013-03-08 20:01:00,45.7,21.4,30.24,North,0,0.0,0.0,38,0.00,,,0.00,WUHU216HW,2013-03-09 01:01:00,
2013-03-08 20:06:00,45.5,22.0,30.24,North,0,0.0,0.0,39,0.00,,,0.00,WUHU216HW,2013-03-09 01:06:00,
2013-03-08 20:11:00,45.5,22.6,30.24,North,0,0.0,0.0,40,0.00,,,0.00,WUHU216HW,2013-03-09 01:11:00,
2013-03-08 20:16:00,45.7,22.8,30.24,North,0,0.0,0.0,40,0.00,,,0.00,WUHU216HW,2013-03-09 01:16:00,
2013-03-08 20:21:00,45.7,22.8,30.24,North,0,0.0,0.0,40,0.00,,,0.00,WUHU216HW,2013-03-09 01:21:00,
2013-03-08 20:26:00,45.5,22.6,30.24,North,0,0.0,0.0,40,0.00,,,0.00,WUHU216HW,2013-03-09 01:26:00,
2013-03-08 20:31:00,45.2,22.2,30.24,North,0,0.0,0.0,40,0.00,,,0.00,WUHU216HW,2013-03-09 01:31:00,
2013-03-08 20:36:00,44.6,22.9,30.25,North,0,0.0,0.0,42,0.00,,,0.00,WUHU216HW,2013-03-09 01:36:00,
2013-03-08 20:41:00,44.3,22.5,30.25,North,0,0.0,0.0,42,0.00,,,0.00,WUHU216HW,2013-03-09 01:41:00,
2013-03-08 20:46:00,44.3,22.5,30.25,North,0,0.0,0.0,42,0.00,,,0.00,WUHU216HW,2013-03-09 01:46:00,
2013-03-08 20:51:00,43.9,22.2,30.26,North,0,0.0,0.0,42,0.00,,,0.00,WUHU216HW,2013-03-09 01:51:00,
2013-03-08 20:56:00,43.6,23.0,30.26,North,0,0.0,0.0,44,0.00,,,0.00,WUHU216HW,2013-03-09 01:56:00,
2013-03-08 21:01:00,43.6,23.0,30.27,North,0,0.0,0.0,44,0.00,,,0.00,WUHU216HW,2013-03-09 02:01:00,
2013-03-08 21:06:00,43.6,23.0,30.27,North,0,0.0,0.0,44,0.00,,,0.00,WUHU216HW,2013-03-09 02:06:00,
2013-03-08 21:12:00,43.4,23.3,30.27,North,0,0.0,0.0,45,0.00,,,0.00,WUHU216HW,2013-03-09 02:12:00,
2013-03-08 21:17:00,43.0,22.5,30.27,North,0,0.0,0.0,44,0.00,,,0.00,WUHU216HW,2013-03-09 02:17:00,
2013-03-08 21:22:00,42.8,22.3,30.27,North,0,0.0,0.0,44,0.00,,,0.00,WUHU216HW,2013-03-09 02:22:00,
2013-03-08 21:27:00,42.8,22.9,30.27,North,0,0.0,0.0,45,0.00,,,0.00,WUHU216HW,2013-03-09 02:27:00,
2013-03-08 21:32:00,42.7,22.7,30.27,North,0,0.0,0.0,45,0.00,,,0.00,WUHU216HW,2013-03-09 02:32:00,
2013-03-08 21:37:00,42.1,22.1,30.28,North,0,0.0,0.0,45,0.00,,,0.00,WUHU216HW,2013-03-09 02:37:00,
2013-03-08 21:42:00,41.9,23.6,30.27,North,0,0.0,0.0,48,0.00,,,0.00,WUHU216HW,2013-03-09 02:42:00,
2013-03-08 21:47:00,42.3,23.9,30.27,North,0,0.0,0.0,48,0.00,,,0.00,WUHU216HW,2013-03-09 02:47:00,
2013-03-08 21:52:00,42.3,23.9,30.27,North,0,0.0,0.0,48,0.00,,,0.00,WUHU216HW,2013-03-09 02:52:00,
2013-03-08 21:57:00,42.1,23.8,30.27,North,0,0.0,0.0,48,0.00,,,0.00,WUHU216HW,2013-03-09 02:57:00,
2013-03-08 22:02:00,42.1,23.8,30.27,North,0,0.0,0.0,48,0.00,,,0.00,WUHU216HW,2013-03-09 03:02:00,
2013-03-08 22:07:00,41.8,23.9,30.27,North,0,0.0,0.0,49,0.00,,,0.00,WUHU216HW,2013-03-09 03:07:00,
2013-03-08 22:12:00,41.9,24.1,30.27,North,0,0.0,0.0,49,0.00,,,0.00,WUHU216HW,2013-03-09 03:12:00,
2013-03-08 22:17:00,41.8,23.9,30.27,North,0,0.0,0.0,49,0.00,,,0.00,WUHU216HW,2013-03-09 03:17:00,
2013-03-08 22:22:00,41.6,23.8,30.27,North,0,0.0,0.0,49,0.00,,,0.00,WUHU216HW,2013-03-09 03:22:00,
2013-03-08 22:27:00,41.4,23.6,30.27,North,0,0.0,0.0,49,0.00,,,0.00,WUHU216HW,2013-03-09 03:27:00,
2013-03-08 22:32:00,41.4,23.6,30.27,North,0,0.0,0.0,49,0.00,,,0.00,WUHU216HW,2013-03-09 03:32:00,
2013-03-08 22:38:00,41.0,23.2,30.27,North,0,0.0,0.0,49,0.00,,,0.00,WUHU216HW,2013-03-09 03:38:00,
2013-03-08 22:43:00,40.7,23.0,30.27,North,0,0.0,0.0,49,0.00,,,0.00,WUHU216HW,2013-03-09 03:43:00,
2013-03-08 22:48:00,40.7,23.4,30.27,North,0,0.0,0.0,50,0.00,,,0.00,WUHU216HW,2013-03-09 03:48:00,
2013-03-08 22:53:00,40.7,23.0,30.27,North,0,0.0,0.0,49,0.00,,,0.00,WUHU216HW,2013-03-09 03:53:00,
2013-03-08 22:58:00,40.7,23.4,30.27,North,0,0.0,0.0,50,0.00,,,0.00,WUHU216HW,2013-03-09 03:58:00,
2013-03-08 23:03:00,40.7,23.0,30.27,North,0,0.0,0.0,49,0.00,,,0.00,WUHU216HW,2013-03-09 04:03:00,
2013-03-08 23:08:00,40.9,23.6,30.27,North,0,0.0,0.0,50,0.00,,,0.00,WUHU216HW,2013-03-09 04:08:00,
2013-03-08 23:13:00,40.9,23.0,30.27,North,0,0.0,0.0,49,0.00,,,0.00,WUHU216HW,2013-03-09 04:13:00,
2013-03-08 23:18:00,40.7,23.4,30.27,North,0,0.0,0.0,50,0.00,,,0.00,WUHU216HW,2013-03-09 04:18:00,
2013-03-08 23:23:00,40.5,23.3,30.27,North,0,0.0,0.0,50,0.00,,,0.00,WUHU216HW,2013-03-09 04:23:00,
2013-03-08 23:28:00,40.3,23.1,30.27,North,0,0.0,0.0,50,0.00,,,0.00,WUHU216HW,2013-03-09 04:28:00,
2013-03-08 23:33:00,40.5,23.3,30.27,North,0,0.0,0.0,50,0.00,,,0.00,WUHU216HW,2013-03-09 04:33:00,
2013-03-08 23:38:00,40.1,23.0,30.27,North,0,0.0,0.0,50,0.00,,,0.00,WUHU216HW,2013-03-09 04:38:00,
2013-03-08 23:43:00,40.3,23.1,30.27,North,0,0.0,0.0,50,0.00,,,0.00,WUHU216HW,2013-03-09 04:43:00,
2013-03-08 23:48:00,40.3,23.1,30.27,North,0,0.0,0.0,50,0.00,,,0.00,WUHU216HW,2013-03-09 04:48:00,
2013-03-08 23:53:00,40.3,23.1,30.26,North,0,0.0,0.0,50,0.00,,,0.00,WUHU216HW,2013-03-09 04:53:00,
2013-03-08 23:59:00,40.0,22.8,30.26,North,0,0.0,0.0,50,0.00,,,0.00,WUHU216HW,2013-03-09 04:59:00,